Location: Asbacherhof
(48.8543°N, 10.7903°E)
Time: 17:45:03
(UTC+00:00)

Cosmos 1980 - Pass Details

Date: 26 May 2022
Orbit: 839 x 846 km, 71.0° (Epoch: 07 July)

Event Time Altitude Azimuth Distance (km) Brightness Sun altitude
Exits shadow 00:20:05 33° 195° (SSW) 1,376 4.2 -18.5°
Maximum altitude 00:22:42 77° 116° (ESE) 866 3.7 -18.4°
Drops below altitude 10° 00:28:21 10° 31° (NNE) 2,466 7.3 -18.1°
Sets 00:30:48 0° 30° (NNE) 3,405 8.4 -18.0°
